{"data":{"norad_id":64035,"epoch":"2026-05-24T20:02:32.850816Z","epoch_age_seconds":82445,"freshness":"FRESH","line1":"1 64035U 25102P   26144.83510244  .00005823  00000+0  49528-3 0  9990","line2":"2 64035  70.0004 282.5191 0003172 267.9349  92.1447 14.98340143 57132","mean_motion":14.98340143,"eccentricity":0.0003172,"inclination_deg":70.0004,"raan_deg":282.5191,"arg_perigee_deg":267.9349,"mean_anomaly_deg":92.1447,"bstar":0.00049528,"rev_number":5713,"period_min":96.106348530235,"perigee_km":569.81993349492,"apogee_km":574.22911596621,"semimajor_km":6950.1615247306,"source":"CELESTRAK","updated_at":"2026-05-25T13:38:20.227074Z"}}